Location: Harwich
(41.7160°N, 69.9939°W)
Time: 13:36:49
(UTC+02:00)

Gurwin Techsat 1B - Visible Passes

Search period start: 17 September 2024 00:00
Search period end: 27 September 2024 00:00
Orbit: 811 x 811 km, 98.9° (Epoch: 16 September)

Date Brightness Start Highest point End Pass type
(mag) Time Alt. Az. Time Alt. Az. Time Alt. Az.
17 Sep 11.1 09:16:22 10° NE 09:19:36 16° E 09:22:48 10° SE visible
17 Sep 8.6 10:54:38 10° N 10:59:54 64° WNW 11:04:54 11° SSW visible
18 Sep 8.7 10:31:18 10° NNE 10:36:38 80° ESE 10:41:15 14° S visible
19 Sep 9.4 10:08:08 10° NNE 10:13:18 49° E 10:17:36 14° S visible
19 Sep 9.8 11:48:45 10° NNW 11:52:49 23° WNW 11:56:53 10° WSW visible
20 Sep 10.3 09:45:14 10° NE 09:49:52 30° E 09:53:57 12° SSE visible
20 Sep 9.3 11:24:57 10° N 11:29:44 35° WNW 11:34:31 10° SW visible
21 Sep 11.0 09:22:43 10° NE 09:26:21 18° E 09:29:58 10° SE visible
21 Sep 8.7 11:01:22 10° N 11:06:34 57° WNW 11:11:27 12° SSW visible
22 Sep 11.4 09:01:35 10° ENE 09:02:45 11° E 09:03:57 10° ESE visible
22 Sep 8.5 10:37:58 10° NNE 10:43:19 90° E 10:47:47 15° SSW visible
23 Sep 9.2 10:14:46 10° NNE 10:20:00 56° ESE 10:24:08 16° S visible
23 Sep 9.9 11:55:37 10° NNW 11:59:26 20° WNW 12:03:14 10° WSW visible
24 Sep 10.1 09:51:46 10° NNE 09:56:35 34° E 10:00:28 14° SSE visible
24 Sep 9.4 11:31:43 10° N 11:36:22 31° WNW 11:40:59 10° SW visible
25 Sep 10.8 09:29:08 10° NE 09:33:06 21° E 09:36:48 11° SE visible
25 Sep 8.8 11:08:05 10° N 11:13:13 50° WNW 11:17:58 12° SW visible
26 Sep 11.3 09:07:18 10° ENE 09:09:31 12° E 09:11:43 10° ESE visible
26 Sep 8.5 10:44:39 10° NNE 10:49:59 80° WNW 10:54:18 16° SSW visible
